Regional Weather Roundup
Issued by NWS

Home | Current Version | Previous Version | Graphics & Text | Print | Product List | Glossary On
Versions: 1 2 3 4 5 6 7 8 9 10 11 12 13 14 15 16 17 18 19 20 21 22 23 24 25 26 27 28 29 30 31 32 33 34 35 36 37 38 39 40 41 42 43 44 45 46 47 48 49 50
000
ASUS43 KMKX 280711
RWRWI

WISCONSIN REGIONAL WEATHER ROUNDUP
NATIONAL WEATHER SERVICE MILWAUKEE/SULLIVAN WI
200 AM CDT TUE APR 28 2015

NOTE: "FAIR" INDICATES FEW OR NO CLOUDS BELOW 12,000 FEET WITH NO
SIGNIFICANT WEATHER AND/OR OBSTRUCTIONS TO VISIBILITY.

WIZ001-002-006>008-014>016-023>028-280800-
NORTHWEST WISCONSIN

CITY           SKY/WX    TMP DP  RH WIND       PRES   REMARKS
SUPERIOR ARPT  PTCLDY    32  29  90 CALM      30.16S
ASHLAND        CLEAR     32  29  88 SW3       30.15F
HAYWARD        CLEAR     34  29  82 CALM      30.15S
SIREN          PTCLDY    37  29  73 CALM      30.15S
CUMBERLAND     CLEAR     37  32  81 CALM      30.15S
RICE LAKE      CLEAR     37  33  87 CALM      30.17S
CHETEK         CLEAR     38  32  79 CALM      30.15F
LADYSMITH      CLEAR     38  32  77 E5        30.16F WCI  35
EAU CLAIRE     CLEAR     42  31  64 CALM      30.14S
MENOMONIE      CLEAR     44  34  68 CALM      30.15S
NEW RICHMOND   PTCLDY    40  34  79 CALM      30.16S
OSCEOLA        PTCLDY    44  31  62 CALM      30.17S
$$

WIZ003>005-009-010-017-018-280800-
NORTH CENTRAL WISCONSIN

CITY           SKY/WX    TMP DP  RH WIND       PRES   REMARKS
MANITOWISH WTR FAIR      31  31 100 CALM      30.15F
ARBOR VITAE    CLEAR     34  29  82 CALM      30.16R
WOODRUFF       CLEAR     34  29  82 CALM      30.16R
RHINELANDER    CLEAR     35  25  66 CALM      30.16S
EAGLE RIVER    CLEAR     30  29  95 CALM      30.15S
LAND O LAKES   CLEAR     29  28  95 CALM      30.16F
PHILLIPS       PTCLDY    32  29  90 CALM      30.15S
TOMAHAWK       CLEAR     31  27  86 CALM      30.16S
MEDFORD        CLEAR     37  28  69 E6        30.15R WCI  33
MERRILL        CLEAR     33  29  85 CALM      30.17S
$$

WIZ029-030-035-036-043>047-280800-
CENTRAL WISCONSIN

CITY           SKY/WX    TMP DP  RH WIND       PRES   REMARKS
WAUSAU         CLEAR     42  34  73 E5        30.15S
MOSINEE        CLEAR     41  34  75 E3        30.17S
MARSHFIELD     CLEAR     43  34  70 SE7       30.15R
STEVENS POINT  CLEAR     39  33  79 CALM      30.16F
WAUPACA        CLEAR     39  34  81 CALM      30.17S
WAUTOMA        CLEAR     35  33  92 CALM      30.17S
WISC RAPIDS    CLEAR     41  33  73 CALM      30.17R
CAMP DOUGLAS   CLEAR     40  40  98 E7        30.15R
$$

WIZ011>013-019>022-031-037>040-048>050-280800-
NORTHEAST WISCONSIN

CITY           SKY/WX    TMP DP  RH WIND       PRES   REMARKS
ANTIGO         CLEAR     35  32  87 CALM      30.17R
SHAWANO        CLEAR     38  35  85 CALM      30.17F
OCONTO         CLEAR     32  31  98 CALM      30.16F
STURGEON BAY   CLEAR     37  34  87 NW7       30.18S WCI  32
GREEN BAY      CLEAR     37  33  85 N3        30.16F
MANITOWOC      CLEAR     38  33  82 N5        30.16S WCI  34
APPLETON       CLEAR     37  30  75 N5        30.16S WCI  34
CLINTONVILLE   CLEAR     36  34  93 N3        30.16F
OSHKOSH        CLEAR     43  33  68 NE3       30.15S
$$

WIZ032>034-041-042-053>061-280800-
SOUTHWEST WISCONSIN

CITY           SKY/WX    TMP DP  RH WIND       PRES   REMARKS
LA CROSSE      CLEAR     47  40  76 CALM      30.13S
SPARTA         CLEAR     32  29  87 CALM      30.14S
VIROQUA        CLEAR     48  30  49 N3        30.13S
BOSCOBEL       CLEAR     40  34  79 CALM      30.13R
PRAIRIE DU CHI CLEAR     42  35  75 CALM      30.13R
PLATTEVILLE    CLEAR     46  34  62 E3        30.12R
$$

WIZ056-057-062-063-064-067-068-280800-
SOUTH CENTRAL WISCONSIN

CITY           SKY/WX    TMP DP  RH WIND       PRES   REMARKS
REEDSBURG      CLEAR     42  36  80 NE5       30.14R
BARABOO/DELLS  CLEAR     39  33  77 E6        30.14S WCI  35
LONE ROCK      CLEAR     45  37  73 E9        30.14R
MINERAL POINT  CLEAR     45  34  65 E9        30.12R
MADISON        CLEAR     39  32  76 CALM      30.15S
MIDDLETON      CLEAR     43  33  65 SE6       30.15S
WATERTOWN      CLEAR     35  34  96 CALM      30.14S
MONROE         CLEAR     41  36  81 SE9       30.14R
JANESVILLE     CLEAR     37  32  81 CALM      30.14R
$$

WIZ051-052-058>065-066-070>072-280800-
SOUTHEAST WISCONSIN

CITY           SKY/WX    TMP DP  RH WIND       PRES   REMARKS
MILWAUKEE      CLEAR     43  31  62 N12       30.14S
WAUKESHA       CLEAR     36  30  80 CALM      30.14S
MILWAUKEE/TIMM CLEAR     37  30  75 NE3       30.14S
RACINE         CLEAR     42  32  67 N10       30.14S
BURLINGTON     CLEAR     32  29  88 CALM      30.13S
KENOSHA        CLEAR     40  32  73 N7        30.12S
FOND DU LAC    CLEAR     37  30  75 CALM      30.15S
SHEBOYGAN      CLEAR     37  30  75 N6        30.14F WCI  32
WEST BEND      CLEAR     34  32  93 CALM      30.14F
JUNEAU         CLEAR     38  32  80 CALM      30.15S
$$

LSZ147-162-280800-
LAKE SUPERIOR

STATION/POSITION TIME  TEMP    WIND        PRES    WAVE
                       AIR SEA DIR/SP/G            HT/PER
                 (UTC) (F)     (DEG/KT/KT) (MB)    (FT/S)
W MID LAKE BUOY  0650   36 33  140/  6/  6 1022.7R   0
DEVILS ISLAND    0700   38      80/  4/  5 1021.9F
PORT WING        0600   35     170/  2/  3 1021.3
SAXON HARBOR     0600   34      CALM  /  3 1020.7S
$$

LMZ867-665-643>646-280800-
LAKE MICHIGAN

STATION/POSITION TIME  TEMP    WIND        PRES    WAVE
                       AIR SEA DIR/SP/G            HT/PER
                 (UTC) (F)     (DEG/KT/KT) (MB)    (FT/S)
CHAMBERS ISLAND  0600   39     360/  2/  3 1021.3S
NORTHPORT PIER   0600   40     330/  7/  9 1021.0S
SISTER BAY       0647   39      10/  6/  7   N/A
KEWAUNEE LAKESHO 0600   43      20/  6/ 10 1020.5R
SHEBOYGAN LAKESH 0700   43      10/ 13/ 15 1021.5F
PORT WASHINGTON  0600   44     340/  5/  7 1021.3S
MILWAUKEE LAKESH 0600   45      10/ 12/ 16   N/A
KENOSHA   LAKESH 0700   44     360/ 14/ 18 1019.6F
$$

TC  - TEMPERATURE IN CELSIUS
VSB - VISIBILITY IN STATUTE MILES
WCI - WIND CHILL INDEX
HX  - HEAT INDEX




USA.gov is the U.S. government's official web portal to all federal, state and local government web resources and services.